CAPE
451 421 808 98 593 414 124 142 408 327 407 376 321 318 532 662 752 583 606 808 796 737 756 835 900 1230 1434 1388 1482 1116 1040 983 988 911 980 815 692 628 538 740 744 603
698 594 1236 526 517 644 375 233 570 392 230 29 14 514 664 535 482 510 712 593 763 660 716 779 756 906 929 944 1171 738 640 740 745 1048 882 793 817 785 753 875 783 688
450 679 420 236 70 84 75 432 432 138 170 324 376 314 471 662 708 713 552 496 535 748 744 720 828 652 785 975 1040 880 825 868 931 1060 1110 947 914 954 1053 935 722 628
500 326 162 160 214 240 181 265 285 134 17 36 266 597 238 217 294 395 497 1318 731 654 757 768 684 684 697 805 910 1046 1225 1188 1184 1048 834 994 1256 1105 771 868 841 452
547 375 198 266 196 298 806 87 74 35 106 210 439 253 549 828 633 453 363 422 654 592 568 649 772 806 840 807 801 804 925 940 1010 982 940 1004 1102 1080 1032 744 674 565
754 332 449 234 230 180 66 40 24 22 124 127 14 172 305 262 154 145 266 385 312 247 266 441 564 702 743 718 782 798 828 988 1125 1098 1076 1112 978 1031 1014 908 778 602
748 522 458 351 354 296 231 228 206 258 49 28 245 222 258 199 132 240 384 421 341 445 503 522 825 880 951 925 885 902 1028 1027 1031 1019 847 806 894 924 829 670 644 544
633 392 361 256 209 234 349 419 369 277 206 164 54 48 339 326 312 358 420 236 336 395 463 740 783 952 1076 998 983 980 951 985 797 802 791 507 354 724 688 571 436 439
786 554 539 446 360 498 567 537 364 167 136 202 256 260 431 359 336 396 336 265 379 380 408 625 879 908 1127 918 936 895 823 880 900 961 891 671 575 490 364 478 532 526
946 840 641 590 539 535 434 208 157 132 169 154 114 117 123 417 576 470 358 390 369 491 554 658 767 1154 1197 1187 1118 1194 864 802 711 512 566 780 547 435 510 603 596 497
960 803 600 408 208 158 129 80 66 24 82 17 0 0 0 0 0 186 294 429 481 419 614 650 761 945 1163 1189 1316 1251 1010 740 606 492 280 219 290 418 545 659 626 542
698 585 370 241 160 83 16 4 3 0 0 0 19 0 0 1 0 0 97 168 297 537 473 471 580 985 1006 1005 1383 1217 992 836 682 441 334 325 382 406 425 491 590 546
649 560 292 195 224 151 133 98 8 4 40 77 55 68 1 0 0 0 126 224 238 64 128 277 321 478 725 1095 1472 1279 1078 820 528 351 302 346 419 450 508 612 552 462
568 572 275 166 177 274 190 107 56 106 26 86 202 38 39 19 5 0 1 96 50 70 82 133 110 98 328 1014 1395 1113 729 404 464 360 396 466 562 570 467 454 447 463
674 534 306 288 382 237 142 88 100 80 140 208 164 247 334 105 21 2 27 20 28 26 50 147 290 399 955 1175 1052 687 563 690 668 586 607 671 482 409 458 486 490 475
702 521 394 281 266 161 62 62 106 202 240 196 217 248 312 274 62 177 276 43 6 203 304 268 318 680 1346 886 715 686 799 938 1024 1026 816 493 456 479 504 508 466 435
212 235 210 273 188 112 143 209 208 264 233 232 393 408 170 144 388 16 0 12 160 89 28 80 301 628 882 799 686 580 680 835 959 814 610 545 514 461 438 462 465 469
158 170 214 206 178 186 189 207 302 319 312 320 398 496 525 465 282 210 223 220 214 131 74 116 254 475 336 160 328 76 198 488 628 729 658 529 494 479 500 546 547 663
285 300 264 292 262 230 237 368 360 398 468 475 500 480 504 471 357 335 378 209 228 264 370 296 218 190 60 0 0 1 2 130 331 574 699 679 596 577 605 592 528 569
434 485 470 387 366 350 394 410 536 552 520 530 508 521 508 436 417 248 143 326 380 277 226 205 228 75 0 0 0 0 0 8 174 468 673 722 722 678 627 622 654 732
683 608 640 619 606 538 466 516 605 622 669 652 588 567 522 389 226 275 434 555 442 162 54 98 448 1 0 0 0 0 0 0 38 475 700 748 743 689 673 758 893 912
748 722 672 708 681 647 637 611 634 680 710 721 708 623 528 439 424 438 336 274 210 223 207 371 550 0 0 0 0 0 0 0 34 229 456 622 803 911 892 989 1012 934
774 723 692 676 678 664 644 656 688 731 756 799 840 745 646 592 450 316 282 224 199 205 358 68 185 122 0 0 0 0 0 4 234 483 676 902 1026 981 948 1008 1074 1050
930 780 712 688 678 657 662 664 715 796 848 955 905 871 757 676 571 374 329 335 343 282 340 98 120 476 0 0 0 0 0 196 670 840 655 706 828 822 794 827 887 1203
1105 919 818 754 694 670 658 709 786 866 952 1075 1007 882 800 774 608 364 239 312 318 151 566 181 33 397 0 0 10 0 0 30 482 824 875 682 524 471 341 481 327 136
1347 1114 880 775 736 690 681 738 856 964 1055 1109 1076 911 794 654 529 400 242 159 55 83 540 269 230 292 593 542 50 0 0 4 19 256 311 206 67 190 197 10 0 0
Wind_Speed
28 27 27 nan 28 30 29 29 31 32 31 31 31 30 31 32 32 33 33 35 35 35 34 35 36 38 39 39 39 40 41 43 43 44 46 46 45 45 45 46 46 44
28 27 28 29 29 29 30 31 32 33 32 nan nan 31 32 33 33 34 35 35 36 35 35 35 35 37 39 40 42 42 41 43 43 45 46 46 46 48 47 47 46 44
28 28 29 30 nan nan nan 31 33 33 32 30 30 30 31 33 34 36 36 36 36 37 36 36 37 37 38 41 43 43 43 43 43 44 46 46 46 47 49 49 47 44
28 29 29 29 29 30 31 33 32 33 nan nan 29 31 32 32 34 35 35 35 37 37 38 37 37 38 39 41 43 44 45 46 45 45 45 46 48 49 47 47 47 43
29 28 28 28 29 31 32 nan nan nan 30 29 30 31 32 34 35 35 35 35 38 38 38 38 39 40 41 41 43 44 45 45 44 45 45 46 47 48 48 45 42 40
30 30 28 29 30 32 nan nan nan nan 29 29 nan 29 33 35 34 34 35 37 39 40 40 40 40 40 41 42 43 45 46 46 45 45 46 47 48 48 47 45 41 37
32 31 30 31 32 33 33 33 32 31 nan nan 30 30 32 34 35 35 37 40 41 42 42 41 41 40 41 42 43 44 45 46 46 46 46 47 47 46 44 42 38 37
32 32 33 33 34 34 35 35 33 32 31 30 nan nan 32 33 34 35 38 39 40 42 42 42 41 42 42 43 43 44 44 45 46 46 47 48 46 43 40 39 36 35
31 31 33 35 36 36 37 35 33 32 31 31 31 30 31 33 33 36 37 39 40 42 43 43 43 43 43 44 44 44 44 44 45 45 46 46 44 41 36 33 34 34
31 31 34 36 37 38 37 35 33 31 30 30 30 30 30 32 35 37 38 41 42 42 43 43 43 43 44 44 44 45 45 45 45 46 45 44 42 38 34 33 34 34
31 31 34 35 36 38 37 nan nan nan nan nan nan nan nan nan nan 38 40 41 41 42 43 44 44 45 45 44 45 46 46 46 46 45 45 43 40 36 33 33 33 34
33 32 35 36 37 nan nan nan nan nan nan nan nan nan nan nan nan nan nan 42 43 44 45 45 44 44 45 44 45 46 47 46 45 45 43 41 39 36 34 33 34 33
34 36 37 37 38 38 36 nan nan nan nan nan nan nan nan nan nan nan 42 45 46 nan 45 44 43 43 43 44 45 46 45 44 43 43 41 38 36 35 33 33 32 31
33 36 38 38 38 37 37 37 nan 37 nan nan 36 nan nan nan nan nan nan nan nan nan nan 42 41 nan 41 44 46 45 43 41 41 40 38 36 34 33 33 31 30 29
33 36 37 38 37 38 39 nan 38 nan 36 37 37 37 39 40 nan nan nan nan nan nan nan 42 41 41 44 46 45 43 42 41 41 40 37 34 32 30 29 29 28 27
35 35 37 38 38 39 nan nan 38 37 38 38 38 39 41 42 nan 43 45 nan nan 44 44 43 41 42 44 47 45 43 42 42 41 40 37 34 31 29 27 27 27 28
36 36 38 39 39 39 39 39 39 39 39 39 40 41 42 43 45 nan nan nan 46 nan nan nan 41 41 43 44 44 44 42 41 41 38 35 33 32 29 26 25 26 28
36 37 38 38 39 40 40 40 41 41 40 40 41 42 43 45 46 46 46 47 46 45 nan 40 40 40 41 42 42 nan 41 40 40 37 33 32 31 28 26 26 26 27
37 38 39 39 40 41 41 42 42 42 42 42 43 44 44 45 46 47 47 46 46 45 42 40 40 38 nan nan nan nan nan 40 38 35 32 31 30 28 27 27 27 27
38 40 40 40 42 42 43 44 44 44 44 45 46 46 45 44 46 47 47 47 47 46 42 40 40 nan nan nan nan nan nan nan 37 34 31 30 29 28 28 28 28 28
39 41 41 42 43 44 44 45 46 46 46 47 49 49 47 45 45 46 48 48 48 46 nan nan 41 nan nan nan nan nan nan nan nan 33 30 29 28 27 28 29 30 29
40 41 41 42 44 44 46 47 48 49 49 50 50 50 48 46 44 47 48 48 46 45 42 40 40 nan nan nan nan nan nan nan nan 34 31 28 26 27 28 30 30 29
40 41 42 43 44 45 45 47 50 51 51 52 52 51 49 47 45 46 47 46 44 43 44 nan 37 40 nan nan nan nan nan nan 35 34 31 28 27 26 27 28 30 29
40 41 42 43 44 44 45 48 51 52 53 54 54 53 51 48 45 43 44 44 44 44 46 nan 38 40 nan nan nan nan nan 34 35 34 31 29 26 25 26 28 28 27
39 40 41 42 42 43 46 50 52 53 54 55 54 54 51 48 44 42 41 42 43 42 44 42 nan 37 nan nan nan nan nan nan 36 33 31 29 27 24 25 27 29 29
39 40 40 40 40 43 49 52 52 53 56 57 55 53 50 48 46 43 42 41 nan nan 41 40 40 38 39 43 nan nan nan nan nan 34 31 29 nan 25 23 nan nan nan
Wind_Direction
306 308 311 nan 315 316 317 317 319 319 317 315 314 315 317 317 317 317 319 318 317 317 317 317 316 317 317 318 319 316 316 317 318 318 317 317 319 318 318 317 317 315
307 309 308 309 311 313 316 318 317 316 314 nan nan 314 316 316 318 319 317 316 317 318 318 317 317 317 317 318 317 318 319 318 318 318 319 320 321 320 319 318 315 314
307 308 309 310 nan nan nan 316 317 316 313 312 312 311 313 316 319 318 317 318 319 319 319 319 320 320 321 321 320 320 320 319 319 320 321 321 321 320 319 318 316 313
308 309 311 312 313 313 312 312 314 315 nan nan 312 312 313 315 317 318 318 319 318 320 320 321 321 322 322 322 321 319 320 320 322 322 321 320 320 318 317 316 315 311
309 309 308 309 310 310 309 nan nan nan 313 314 312 311 311 312 313 315 317 319 319 320 320 321 321 321 320 319 318 318 318 319 320 320 320 321 321 319 319 315 313 310
310 311 308 310 313 314 nan nan nan nan 318 316 nan 314 313 313 314 318 320 322 322 322 321 320 319 320 320 320 319 320 320 322 323 323 323 323 322 321 319 317 314 310
314 312 310 311 315 317 319 320 319 318 nan nan 314 314 315 316 319 322 323 325 324 323 322 322 322 321 321 321 321 322 322 323 324 324 325 321 320 321 319 315 314 311
315 314 314 316 319 322 322 322 320 320 320 316 nan nan 318 322 324 325 325 325 324 323 323 324 324 323 322 319 320 320 321 322 323 325 322 319 322 319 317 317 320 314
314 315 316 319 321 321 322 321 322 322 320 318 318 319 319 322 325 326 326 325 325 325 325 325 325 323 322 322 322 322 322 321 321 322 322 323 320 319 321 321 321 318
314 316 318 319 320 320 320 322 322 324 317 317 319 317 318 317 320 323 324 324 327 327 326 325 324 323 322 322 323 322 320 321 321 320 320 321 321 321 323 324 321 318
314 317 319 319 320 320 323 nan nan nan nan nan nan nan nan nan nan 322 324 324 326 326 324 323 324 324 324 324 323 321 321 321 321 322 323 323 322 321 322 322 321 319
315 318 319 322 322 nan nan nan nan nan nan nan nan nan nan nan nan nan nan 322 319 317 319 323 325 325 325 325 323 321 321 322 323 324 324 324 322 321 321 323 321 319
321 320 319 322 322 322 320 nan nan nan nan nan nan nan nan nan nan nan 320 318 317 nan 319 322 323 324 325 324 322 320 322 323 324 324 324 323 321 321 321 321 319 316
324 318 318 319 319 318 317 315 nan 314 nan nan 314 nan nan nan nan nan nan nan nan nan nan 322 323 nan 324 321 320 323 322 323 325 324 322 321 320 318 316 314 314 313
319 317 316 318 318 315 312 nan 314 nan 317 317 318 320 320 321 nan nan nan nan nan nan nan 322 324 324 321 321 323 322 322 325 326 324 323 321 317 313 312 312 312 313
315 316 317 318 316 315 nan nan 317 319 320 321 322 322 321 321 nan 321 320 nan nan 320 321 321 322 321 323 328 327 323 323 325 325 323 321 319 315 312 310 311 311 310
314 316 316 317 316 315 315 316 318 320 321 322 322 321 322 323 322 nan nan nan 319 nan nan nan 321 322 328 329 330 330 324 323 323 322 319 318 315 314 312 310 308 308
316 315 315 315 314 316 316 317 317 319 320 321 321 322 323 321 320 320 320 319 318 319 nan 322 321 325 330 329 329 nan 326 323 322 321 319 316 315 313 313 310 310 309
314 315 315 315 316 316 316 316 317 318 320 321 322 322 320 319 319 318 318 318 318 319 320 320 320 321 nan nan nan nan nan 325 322 320 317 315 314 313 313 313 310 309
315 315 316 317 316 316 316 317 318 321 321 320 319 318 319 319 317 317 317 317 317 318 319 321 320 nan nan nan nan nan nan nan 320 319 316 314 314 314 313 314 312 309
315 316 317 317 317 317 317 319 320 320 320 319 318 317 317 318 317 315 315 314 315 317 nan nan 318 nan nan nan nan nan nan nan nan 318 314 312 312 313 315 315 312 311
315 316 316 315 316 317 319 320 320 321 320 317 315 315 315 316 315 313 312 313 315 317 319 318 316 nan nan nan nan nan nan nan nan 318 315 314 313 313 313 312 310 310
314 315 315 316 316 318 321 321 320 319 317 315 314 314 315 315 314 312 310 311 314 315 315 nan 312 307 nan nan nan nan nan nan 320 318 315 314 311 308 309 309 308 308
312 314 316 317 317 320 322 319 317 315 315 314 314 312 314 315 314 312 309 309 312 313 315 nan 313 307 nan nan nan nan nan 312 318 316 314 312 310 305 305 305 305 309
311 313 315 317 320 323 320 316 316 316 314 311 310 309 310 311 311 309 305 306 309 311 316 318 nan 308 nan nan nan nan nan nan 315 314 313 312 311 305 302 301 300 299
309 313 315 318 322 319 315 315 313 313 312 310 308 309 312 314 311 304 301 305 nan nan 308 312 308 307 307 309 nan nan nan nan nan 312 312 310 nan 305 299 nan nan nan